www.pogodaiklimat.ru

Погода и климат >> Архив погоды >> Россия >> Бурятия >> Багдарин


АРХИВ ПОГОДЫ в Багдарине

Время (UTC), дата Ветер
(напр.,м/с)
 
Видим.   Явления Облачность Т
(С)
Тd
(С)
f
(%)
Тe
(С)
Тes
(С)
Комфортность P
(гПа)
Po
(гПа)
Тmin
(С)
Tmax
(С)
R
(мм)
R24
(мм)
S
(см)
09 13.09 СЗ 4
{10}
20 км 4/3 1000 м
[Cu hum Ci fib]
+10.0 -10.2 23 +8 +9 1008.2 905.2
12 13.09 ЮВ 1 н/о 3/0
[Ac lent Ci fib]
+2.0 -6.3 54 +1 +1 1011.7 905.6 +12.4
15 13.09 штиль 0 н/о 3/0
[Ci fib]
-3.7 -6.8 79 -5 -5 1013.8 905.4
18 13.09 штиль 0 н/о 10/0
[Ci fib]
-5.9 -7.4 89 -7 -7 1014.1 904.8
21 13.09 штиль 0 н/о 10/0
[Ac lent Ci fib]
-5.6 -6.9 91 -7 -7 1013.1 904.0
00 14.09 штиль 0 20 км 10/3 1000 м
[Sc Ac lent Ci sp]
-1.6 -4.4 81 -3 -2 1010.4 903.2 -6.3
03 14.09 Ю 2 20 км 10/3 1000 м
[Cu med, cong Ci fib]
+9.8 -2.5 42 +9 +13 1003.7 901.2
06 14.09 ЮЗ 4 20 км 9/8 1000 м
[Cb cap Ci sp]
+10.8 -4.8 33 +9 +10 1001.1 899.2
09 14.09 З 2
{12}
20 км 9/8 1000 м
[Cb cap Ci sp]
+9.4 -3.4 40 +8 +9 999.9 897.7
12 14.09 З 5-11
{11}
н/о 6/4 1000 м
[Cb cap Ci sp]
+5.1 -7.1 41 +1 +1 1003.5 899.4 +11.3
15 14.09 З 3-12
{14}
н/о 8/6 1000 м
[Sc diur, vesp Ci fib]
+0.7 -13.4 34 -3 -3 1007.8 901.5
18 14.09 З 3
{12}
н/о ливневой снег 10/10 1000 м
[Cb cap]
-3.6 -5.1 89 -9 -9 1012.0 903.8
21 14.09 З 1 н/о {ливн. осадки} 3/0
[Ac lent Ci fib]
-3.6 -8.6 68 -6 -6 1012.9 904.6
00 15.09 З 4
{11}
20 км {ливн. осадки} 3/0
[Ci fib]
-0.3 -12.3 40 -5 -4 1012.7 905.6 -4.2 0.9 <0.5
03 15.09 З 5-10
{12}
20 км 4/1 1000 м
[Sc diur, vesp Ac lent Ci fib]
+3.1 -12.5 31 -1 +2 1012.3 906.5
06 15.09 З 4
{10}
20 км 6/1 1000 м
[Cu hum Ci fib]
+6.0 -11.8 27 +3 +7 1011.0 906.3
09 15.09 З 3
{11}
20 км 4/1 1000 м
[Sc diur, vesp Ci fib]
+6.3 -11.3 27 +4 +5 1011.0 906.5
12 15.09 штиль 0 н/о 10/0
[Ac lent Ci fib]
-0.6 -8.9 53 -1 -1 1014.8 907.4 +7.0 0.3
15 15.09 штиль 0 н/о 8/4 1000 м
[Sc Ac trans Ci fib]
-3.6 -7.6 74 -4 -4 1015.8 907.1
18 15.09 штиль 0 н/о 4/1 1000 м
[Sc Ac trans Ci fib]
-6.3 -8.7 83 -7 -7 1016.2 906.5
21 15.09 штиль 0 н/о 4/3 1000 м
[Sc Ac trans Ci fib]
-8.3 -9.8 89 -9 -9 1016.4 905.9
00 16.09 штиль 0 20 км 10/6 1000 м
[Sc Ac trans Ci fib]
-4.8 -7.0 85 -6 -5 1014.0 905.2 -9.1
03 16.09 ЮВ 1 20 км 10/8 1000 м
[Cb cap Ac trans Ci fib]
+4.6 -5.3 49 +4 +5 1008.6 903.7
06 16.09 С 1 20 км 10/9 1000 м
[Cb cap Ac As]
+5.5 -0.3 66 +5 +5 1007.4 903.0
09 16.09 С 3 20 км 10/9 1000 м
[Cb cap Ci fib]
+5.1 -2.5 58 +2 +2 1008.3 903.7
12 16.09 СЗ 2 н/о 8/6 1000 м
[Cb cap Ci fib]
+3.3 -5.3 53 +1 +1 1011.5 905.9 +8.2
15 16.09 СЗ 4 н/о 8/5 1000 м
[Sc Ci fib]
+1.4 -6.7 55 -3 -3 1015.1 908.4
18 16.09 СЗ 2 н/о 5/3 1000 м
[Sc Ci fib]
0.0 -8.6 52 -3 -3 1018.3 910.8
21 16.09 З 1 н/о ясно -4.4 -8.7 72 -6 -6 1022.5 912.9
00 17.09 С 1 20 км 3/0
[Ci fib]
+0.9 -9.6 45 -0 +1 1022.7 915.0 -4.4
03 17.09 С 4
{10}
20 км 3/0
[Ac trans Ci fib]
+5.0 -10.7 31 +2 +6 1021.6 915.5
06 17.09 СЗ 2 20 км 10/8 1000 м
[Cu Sc Ci fib]
+7.0 -10.2 28 +6 +7 1020.6 915.3
09 17.09 СЗ 3 20 км 10/8 1000 м
[Sc Ci fib]
+5.9 -9.1 33 +4 +4 1021.3 915.6
12 17.09 СЗ 1 н/о 3/1 1000 м
[Sc Ci fib]
-0.5 -7.3 60 -2 -2 1024.9 916.4 +7.7
15 17.09 ЮВ 1 н/о 6/0
[Ci fib]
-5.8 -8.7 80 -8 -8 1027.6 916.9
18 17.09 штиль 0 н/о 8/0
[Ci fib]
-4.0 -7.3 78 -5 -5 1027.0 917.1
21 17.09 штиль 0 н/о 10/0
[Ac trans Ci fib]
-4.3 -7.0 81 -5 -5 1025.9 916.0
00 18.09 штиль 0 20 км 5/0
[Ac trans Ci fib]
-1.1 -6.3 68 -2 -1 1024.0 915.5 -6.6
03 18.09 ЮВ 1 20 км 6/0
[Ci fib]
+10.0 -4.6 35 +10 +17 1017.4 913.6
06 18.09 ЮВ 2 20 км 10/4 1000 м
[Cu med, cong Ci fib]
+15.7 -1.8 30 +16 +19 1012.4 911.0
09 18.09 СЗ 2 20 км 9/4 1000 м
[Sc diur, vesp Ci fib]
+15.2 -2.5 29 +15 +16 1011.5 910.0
12 18.09 штиль 0 н/о 4/0
[Ac lent Ci fib]
+5.6 -1.2 62 +5 +5 1015.7 910.6 +16.6
15 18.09 штиль 0 н/о 3/0
[Ci fib]
+0.1 -2.5 83 -1 -1 1018.2 910.8
18 18.09 штиль 0 н/о 9/0
[Ac trans Ci fib]
+0.8 -1.6 84 -0 -0 1017.6 910.5
21 18.09 СЗ 1 н/о 5/0
[Ac trans Ci fib]
-3.0 -3.9 93 -5 -5 1018.2 909.6
00 19.09 СЗ 1 20 км 10/0
[Ac As]
+0.3 -1.3 89 -2 -1 1016.2 909.1 -3.2
03 19.09 З 3 20 км 10/4 1000 м
[Sc Ac trans Ci fib]
+13.0 +1.3 45 +12 +14 1010.6 908.6
06 19.09 СЗ 4
{12}
20 км 10/6 1000 м
[Sc Ac trans Ci fib]
+15.0 -4.0 27 +14 +15 1010.5 909.0
09 19.09 З 3-10
{11}
20 км 8/5 1000 м
[Sc Ac trans Ci fib]
+13.5 -3.9 30 +13 +13 1012.0 909.9
12 19.09 СЗ 1
{11}
н/о 8/4 1000 м
[Sc Ac trans Ci fib]
+10.0 -2.7 41 +10 +10 1015.0 911.4 +15.2
15 19.09 З 1 н/о 3/0
[Ac lent Ci fib]
+5.3 -0.3 67 +4 +4 1018.2 912.7
18 19.09 С 1 н/о 3/0
[Ac lent Ci fib]
+0.5 -2.0 83 -1 -1 1021.3 913.7
21 19.09 штиль 0 н/о ясно -3.6 -4.5 93 -5 -5 1024.7 915.2
00 20.09 штиль 0 20 км 3/0
[Ci fib]
+1.1 -2.3 78 0 +2 1024.6 916.9 -4.7
03 20.09 СЗ 3 20 км 10/1 1000 м
[Cu hum Ac lent Ci fib]
+12.0 -4.3 32 +11 +13 1020.0 916.6
06 20.09 СЗ 3 20 км 10/0
[As trans]
+12.7 -3.7 32 +12 +14 1019.3 916.2

 

Местоположение метеостанции Багдарин (Бурятия, Россия): широта 54.43 долгота 113.50 высота над уровнем моря 902 м.

В архиве по умолчанию представлена погода в Багдарине за последнюю неделю. Архивные данные за месяц целиком и за предыдущие месяцы, начиная с января 2011 года, Вы можете получить, выбрав интересующий диапазон дат из раскрывающегося списка и нажав кнопку "Ввод!".


*Определитесь, кто Вы:
робот инопланетянин человек

Внимание! Время в таблицах - всемирное. Для получения местного времени необходимо прибавить поправку, которая равна 8 ч.

Смотрите также архив погоды в соседних городах и на ближайших метеорологических станциях:

Погода в Троицком Прииске (Бурятия, Россия) (31 км)
Погода в Баунте (Бурятия, Россия) (97 км)
Погода в Уаките (Бурятия, Россия) (117 км)
Погода в Усть-Джилинде (Бурятия, Россия) (134 км)
Погода в Романовке (Бурятия, Россия) (147 км)
Погода в Тунгокочене (Забайкальский край, Россия) (170 км)
Погода в Телембе (Бурятия, Россия) (187 км)
Погода в Усть-Каренге (Забайкальский край, Россия) (194 км)
Погода в Курумкане (Бурятия, Россия) (208 км)
Погода в Бургени (Забайкальский край, Россия) (223 км)

Пояснения к столбцам:

Ветер - указаны скорость ветра в м/с - средняя за 10 мин, порывы в срок и между сроками (в фигурных скобках) и направление, откуда дует ветер: С - северный, СВ - северо-восточный, В - восточный, ЮВ - юго-восточный, Ю - южный, ЮЗ - юго-западный, З - западный, СЗ - северо-западный.
Видимость - горизонтальная дальность видимости в метрах или километрах. При видимости от 1 до 10 км при отсутствии осадков обычно наблюдается дымка, при ухудшении видимости до 1 км и менее - туман. В сухую погоду видимость может ухудшаться дымом, пылью или мглою.
Явления - указаны атмосферные явления, наблюдавшиеся в срок или в последний час перед сроком; фигурными скобками обозначены явления, наблюдавшиеся между сроками (за 1-3 часа до срока); квадратными скобками обозначены град или гололедные отложения с указанием их диаметра в мм.
Облачность - указаны через наклонную черту общая и нижняя облачность в баллах и высота нижней границы облаков в метрах; квадратными скобками обозначены формы облаков: Ci - перистые, Cs - перисто-слоистые, Cc - перисто-кучевые, Ac - высококучевые, As - высокослоистые, Sc - слоисто-кучевые, Ns - слоисто-дождевые, Cu - кучевые, Cb - кучево-дождевые. Подробнее классификацию облаков см. в Атласе облаков (PDF).
T - Температура воздуха - температура, измеренная на высоте 2 м над землей.
Td - Температура точки росы - температура, при понижении до которой содержащийся в воздухе водяной пар достигнет насыщения.
f - Относительная влажность воздуха - влажноcть воздуха, измеренная на высоте 2 м над землей.
Te - Эффективная температура - температура, которую ощущает одетый по сезону человек в тени. Характеристика душности погоды. При расчете учитывается влияние влажности воздуха и скорости ветра на теплоощущения человека.
Tes - Эффективная температура на солнце - температура, которую ощущает человек, с поправкой на солнечный нагрев. Характеристика знойности погоды. Зависит от высоты солнца над горизонтом, облачности и скорости ветра. Ночью, в пасмурную погоду, а также при ветре 12 м/с и более поправка равна нулю.
P - Атмосферное давление - приведенное к уровню моря атмосферное давление.
Po - Атмосферное давление - измеренное на уровне метеостанции атмосферное давление.
Tmin - Минимальная температура - минимум температуры воздуха на высоте 2 м над землей.
Tmax - Максимальная температура - максимум температуры воздуха на высоте 2 м над землей.
R - Количество осадков - Количество выпавших осадков за период времени, мм. При наведении курсора мыши на число - период времени, за который выпало указанное количество осадков.
R24 - Количество осадков - Количество выпавших осадков за 24 часа, мм.
S - Снежный покров - Высота снежного покрова, см. При наведении курсора мыши на число - состояние снежного покрова и степень покрытия местности в баллах.